User: anonymous   Login
Location: Unspecified
(0.0000°N, 0.0000°E)
Time: 12:45:55
(UTC+00:00)
Language:

STRELA 3 - Orbit

View from above orbital plane
View from above orbital plane
View from above satellite
View from above satellite

Ground track
Ground track

The orbit data is extracted from the following two-line orbital elements,

1 37153U 10043B   17263.03000935  .00000029  00000-0  14467-3 0  9992
2 37153  82.4541 266.7386 0007323 160.2117 199.9250 12.40726280318566
Epoch (UTC): 20 September 2017 00:43:12
Eccentricity: 0.0007323
inclination: 82.4541°
perigee height: 1498 km
apogee height: 1509 km
right ascension of ascending node: 266.7386°
argument of perigee: 160.2117°
revolutions per day: 12.40726280
mean anomaly at epoch: 199.9250°
orbit number at epoch: 31856

The dashed part of the orbit path shows where the satellite is in the earth's shadow,  

DLR